Location: Highland Meadows Observing Site
(48.4428°N, 114.5461°W)
Time: 23:54:05
(UTC-06:00)

Amateur Radio Satellites - All Passes

Search period start: 22 October 2014 23:24
Search period end: 23 October 2014 23:24
Location: Highland Meadows Observing Site, 48.4428°N, 114.5461°W

Satellite Date Start Highest point End Downlink Frequencies (MHz)
Time Altitude Azimuth
KITSAT 1 22 Oct 23:41:06 23:48:19 37° 250° (WSW) 23:55:31 435.175 FM
ZACube-1 22 Oct 23:49:07 23:53:16 33° 264° (W) 23:57:23 437.345 MHz
UKube-1 23 Oct 00:02:40 00:03:15 10° 273° (W) 00:03:50 145.840 MHz, 145.915 MHz
MaSat-1 23 Oct 00:08:39 00:10:01 12° 105° (ESE) 00:11:21 437.345 MHz
FUNcube-1 23 Oct 00:37:00 00:39:03 13° 273° (W) 00:41:06 145.950 - 145.970 MHz USB
UOSAT-12 23 Oct 00:37:11 00:41:56 80° 233° (SW) 00:46:36 437.025 FM, 437.400 FM
SO-50 23 Oct 00:44:47 00:46:06 11° 253° (WSW) 00:47:25 436.795 FM
RS-15 23 Oct 01:11:06 01:22:00 68° 316° (NW) 01:33:00 29.354 - 29.394 USB, Beacon 29.352 USB
Oscar 10/S400 23 Oct 01:36:26 02:30:34 21° 235° (SW) 04:53:01 145.825 - 145.975 CW/USB, Beacon 145.810 USB
MaSat-1 23 Oct 01:41:11 01:45:18 81° 301° (WNW) 01:49:01 437.345 MHz
Oscar 19 23 Oct 01:59:24 02:02:20 15° 88° (E) 02:05:14 437.125 CW, 437.150 USB
UOSAT-12 23 Oct 02:19:26 02:21:18 12° 252° (WSW) 02:23:09 437.025 FM, 437.400 FM
Oscar 16 23 Oct 02:43:33 02:48:18 37° 97° (E) 02:53:00 437.025 USB, Beacon 2401.1428
AO-Echo 23 Oct 02:55:10 02:59:39 27° 93° (E) 03:04:08 ?
JAS-1B 23 Oct 02:55:54 03:02:02 44° 99° (E) 03:09:11 435.800 - 435.900 CW/SSB
Uribyol 2 23 Oct 02:59:48 03:03:58 24° 92° (E) 03:08:06 436.500 FM
ITAMSAT 1 23 Oct 03:05:14 03:09:30 25° 93° (E) 03:13:45 435.822 SSB
Gurwin Techsat 1B 23 Oct 03:13:43 03:17:07 17° 88° (E) 03:20:29 435.225 FM
MaSat-1 23 Oct 03:19:48 03:21:29 12° 318° (NW) 03:23:06 437.345 MHz
TMSAT-1 23 Oct 03:26:22 03:29:39 16° 88° (E) 03:32:56 436.925 FM
RS-15 23 Oct 03:26:54 03:36:44 36° 347° (NNW) 03:46:44 29.354 - 29.394 USB, Beacon 29.352 USB
Oscar 19 23 Oct 03:37:11 03:42:19 81° 287° (WNW) 03:47:26 437.125 CW, 437.150 USB
OPAL 23 Oct 03:47:22 03:49:04 12° 49° (NE) 03:50:46 ?
AO-27 23 Oct 03:49:47 03:54:59 59° 101° (ESE) 04:00:08 436.795 MHz FM
Oscar 16 23 Oct 04:23:00 04:27:37 35° 295° (WNW) 04:32:12 437.025 USB, Beacon 2401.1428
Sapphire 23 Oct 04:26:28 04:30:22 21° 107° (ESE) 04:34:18 437.095 MHz 1200 baud AX-25 AFSK
AO-Echo 23 Oct 04:33:32 04:38:38 49° 291° (WNW) 04:43:44 ?
Uribyol 2 23 Oct 04:38:41 04:43:47 54° 291° (WNW) 04:48:50 436.500 FM
Uosat F 23 Oct 04:40:43 04:42:03 11° 85° (E) 04:43:23 435.120 FM
ITAMSAT 1 23 Oct 04:44:13 04:49:18 52° 291° (WNW) 04:54:20 435.822 SSB
JAS-1B 23 Oct 04:46:51 04:52:41 41° 295° (WNW) 04:59:28 435.800 - 435.900 CW/SSB
PCSat 23 Oct 04:48:09 04:52:54 33° 112° (ESE) 04:57:42 145.825 MHz
Gurwin Techsat 1B 23 Oct 04:52:22 04:57:42 77° 287° (WNW) 05:03:01 435.225 FM
TMSAT-1 23 Oct 05:04:53 05:10:13 79° 287° (WNW) 05:15:31 436.925 FM
Oscar 19 23 Oct 05:18:12 05:20:53 15° 306° (NW) 05:23:34 437.125 CW, 437.150 USB
AO-7 23 Oct 05:18:52 05:26:29 38° 97° (E) 05:34:05 29.400 - 29.500 MHz
OPAL 23 Oct 05:21:56 05:26:59 60° 68° (ENE) 05:32:01 ?
STRAND 1 23 Oct 05:29:56 05:30:17 10° 49° (NE) 05:30:38 ?
AO-27 23 Oct 05:30:00 05:34:07 24° 300° (WNW) 05:38:13 436.795 MHz FM
RS-15 23 Oct 05:42:31 05:52:42 40° 21° (NNE) 06:03:10 29.354 - 29.394 USB, Beacon 29.352 USB
Sapphire 23 Oct 06:07:50 06:13:14 73° 306° (NW) 06:18:42 437.095 MHz 1200 baud AX-25 AFSK
Uosat F 23 Oct 06:16:36 06:21:41 77° 104° (ESE) 06:26:44 435.120 FM
Uribyol 2 23 Oct 06:21:26 06:22:09 10° 311° (NW) 06:22:52 436.500 FM
PCSat 23 Oct 06:30:54 06:36:09 49° 312° (NW) 06:41:27 145.825 MHz
Gurwin Techsat 1B 23 Oct 06:34:03 06:36:50 15° 307° (NW) 06:39:37 435.225 FM
JAS-2 23 Oct 06:44:47 06:52:13 50° 97° (E) 06:59:47 435.800 - 435.900 CW/SSB, 435.910 FM
TMSAT-1 23 Oct 06:46:28 06:49:19 15° 306° (NW) 06:52:11 436.925 FM
OPAL 23 Oct 07:02:22 07:06:15 21° 266° (W) 07:10:07 ?
STRAND 1 23 Oct 07:03:23 07:08:22 54° 69° (ENE) 07:13:24 ?
Hamsat 23 Oct 07:05:07 07:09:03 38° 97° (E) 07:12:58 145.90 MHz
AO-7 23 Oct 07:11:32 07:19:38 60° 298° (WNW) 07:27:45 29.400 - 29.500 MHz
Sapphire 23 Oct 07:53:38 07:57:37 20° 329° (NNW) 08:01:38 437.095 MHz 1200 baud AX-25 AFSK
RS-15 23 Oct 07:55:38 08:06:48 83° 51° (NE) 08:18:25 29.354 - 29.394 USB, Beacon 29.352 USB
Uosat F 23 Oct 07:56:32 07:59:54 18° 303° (WNW) 08:03:16 435.120 FM
SO-67 23 Oct 08:01:18 08:03:54 20° 93° (E) 08:06:29 435.3500 MHz FM
Saudisat 1A 23 Oct 08:06:55 08:09:25 15° 111° (ESE) 08:11:55 436.775 MHz
PCSat 23 Oct 08:17:36 08:20:55 16° 335° (NNW) 08:24:14 145.825 MHz
JAS-2 23 Oct 08:30:00 08:37:08 46° 296° (WNW) 08:44:29 435.800 - 435.900 CW/SSB, 435.910 FM
Hamsat 23 Oct 08:41:27 08:44:50 24° 295° (WNW) 08:48:12 145.90 MHz
STRAND 1 23 Oct 08:43:51 08:47:54 23° 268° (W) 08:51:59 ?
AO-7 23 Oct 09:05:38 09:10:49 19° 321° (NW) 09:16:02 29.400 - 29.500 MHz
SO-67 23 Oct 09:33:53 09:36:57 30° 291° (WNW) 09:40:00 435.3500 MHz FM
Sapphire 23 Oct 09:42:06 09:43:18 11° 355° (N) 09:44:31 437.095 MHz 1200 baud AX-25 AFSK
Saudisat 1A 23 Oct 09:44:00 09:48:24 80° 310° (NW) 09:52:50 436.775 MHz
MaSat-1 23 Oct 09:48:48 09:51:28 38° 54° (NE) 09:53:53 437.345 MHz
HO-68 23 Oct 09:51:04 09:57:22 31° 94° (E) 10:03:36 435.675 MHz FM
PCSat 23 Oct 10:05:45 10:06:48 11° 2° (N) 10:07:50 145.825 MHz
UKube-1 23 Oct 10:08:22 10:10:10 12° 88° (E) 10:11:58 145.840 MHz, 145.915 MHz
RS-15 23 Oct 10:08:43 10:18:05 33° 254° (WSW) 10:27:48 29.354 - 29.394 USB, Beacon 29.352 USB
JAS-2 23 Oct 10:17:23 10:20:26 13° 317° (NW) 10:23:31 435.800 - 435.900 CW/SSB, 435.910 FM
FUNcube-1 23 Oct 10:45:06 10:46:42 12° 87° (E) 10:48:17 145.950 - 145.970 MHz USB
Oscar 11 23 Oct 10:49:52 10:53:40 30° 95° (E) 10:57:26 145.825 FM, Beacon 2401.500 USB
Saudisat 1A 23 Oct 11:25:27 11:28:39 19° 331° (NNW) 11:31:52 436.775 MHz
Sapphire 23 Oct 11:26:15 11:29:15 15° 22° (NNE) 11:32:15 437.095 MHz 1200 baud AX-25 AFSK
ZACube-1 23 Oct 11:34:22 11:38:23 37° 97° (E) 11:42:17 437.345 MHz
HO-68 23 Oct 11:38:25 11:45:30 62° 294° (WNW) 11:52:32 435.675 MHz FM
UKube-1 23 Oct 11:42:32 11:46:56 80° 286° (WNW) 11:51:18 145.840 MHz, 145.915 MHz
PCSat 23 Oct 11:48:50 11:52:34 18° 28° (NNE) 11:56:17 145.825 MHz
Oscar 10/S400 23 Oct 12:15:24 12:19:07 11° 147° (SSE) 12:22:36 145.825 - 145.975 CW/USB, Beacon 145.810 USB
FUNcube-1 23 Oct 12:19:23 12:23:42 78° 286° (WNW) 12:27:54 145.950 - 145.970 MHz USB
KITSAT 1 23 Oct 12:19:40 12:25:41 24° 104° (ESE) 12:31:41 435.175 FM
Oscar 11 23 Oct 12:26:01 12:29:51 32° 293° (WNW) 12:33:39 145.825 FM, Beacon 2401.500 USB
Oscar 16 23 Oct 12:28:09 12:30:44 14° 54° (NE) 12:33:18 437.025 USB, Beacon 2401.1428
ITAMSAT 1 23 Oct 12:52:45 12:53:22 10° 49° (NE) 12:53:59 435.822 SSB
Sapphire 23 Oct 13:09:00 13:14:11 42° 46° (NE) 13:19:19 437.095 MHz 1200 baud AX-25 AFSK
ZACube-1 23 Oct 13:11:05 13:14:38 25° 296° (WNW) 13:18:06 437.345 MHz
Oscar 19 23 Oct 13:19:21 13:23:55 33° 64° (ENE) 13:28:29 437.125 CW, 437.150 USB
UKube-1 23 Oct 13:20:54 13:22:23 12° 305° (NW) 13:23:53 145.840 MHz, 145.915 MHz
SO-50 23 Oct 13:21:54 13:24:32 15° 110° (ESE) 13:27:12 436.795 FM
HO-68 23 Oct 13:27:41 13:31:52 17° 316° (NW) 13:36:03 435.675 MHz FM
PCSat 23 Oct 13:31:41 13:37:06 62° 51° (NE) 13:42:28 145.825 MHz
AO-27 23 Oct 13:34:02 13:37:57 22° 59° (ENE) 13:41:52 436.795 MHz FM
ISS 23 Oct 13:34:23 13:35:20 11° 134° (SE) 13:36:17 145.800 FM
JAS-1B 23 Oct 13:46:40 13:52:17 48° 67° (ENE) 13:57:43 435.800 - 435.900 CW/SSB
FUNcube-1 23 Oct 13:58:20 13:59:18 11° 305° (NW) 14:00:14 145.950 - 145.970 MHz USB
Oscar 16 23 Oct 14:04:06 14:09:16 77° 73° (ENE) 14:14:26 437.025 USB, Beacon 2401.1428
AO-Echo 23 Oct 14:11:43 14:16:24 48° 68° (ENE) 14:21:17 ?
KITSAT 1 23 Oct 14:11:58 14:20:05 90° 299° (WNW) 14:28:13 435.175 FM
Uribyol 2 23 Oct 14:21:04 14:26:07 51° 68° (ENE) 14:31:11 436.500 FM
ITAMSAT 1 23 Oct 14:26:41 14:31:45 54° 69° (ENE) 14:36:51 435.822 SSB
AO-7 23 Oct 14:32:43 14:38:27 21° 42° (NE) 14:44:11 29.400 - 29.500 MHz
Gurwin Techsat 1B 23 Oct 14:38:02 14:42:54 38° 65° (ENE) 14:47:47 435.225 FM
Saudisat 1A 23 Oct 14:49:12 14:51:28 14° 20° (NNE) 14:53:44 436.775 MHz
TMSAT-1 23 Oct 14:50:18 14:55:07 37° 65° (ENE) 14:59:57 436.925 FM
Sapphire 23 Oct 14:52:34 14:57:36 40° 246° (WSW) 15:02:37 437.095 MHz 1200 baud AX-25 AFSK
UOSAT-12 23 Oct 14:54:29 14:56:30 13° 108° (ESE) 14:58:31 437.025 FM, 437.400 FM
Oscar 19 23 Oct 14:58:22 15:03:11 39° 263° (W) 15:08:01 437.125 CW, 437.150 USB
SO-50 23 Oct 14:59:54 15:04:26 82° 309° (NW) 15:09:08 436.795 FM
ISS 23 Oct 15:08:09 15:11:26 56° 151° (SSE) 15:14:43 145.800 FM
AO-27 23 Oct 15:11:50 15:17:00 66° 258° (WSW) 15:22:14 436.795 MHz FM
PCSat 23 Oct 15:15:46 15:20:07 25° 251° (WSW) 15:24:27 145.825 MHz
JAS-1B 23 Oct 15:38:20 15:43:18 27° 266° (W) 15:48:07 435.800 - 435.900 CW/SSB
Oscar 16 23 Oct 15:46:03 15:49:13 16° 271° (W) 15:52:24 437.025 USB, Beacon 2401.1428
AO-Echo 23 Oct 15:51:25 15:55:26 25° 268° (W) 15:59:36 ?
Uosat F 23 Oct 15:56:13 16:00:15 25° 61° (ENE) 16:04:18 435.120 FM
Uribyol 2 23 Oct 16:01:35 16:05:52 25° 267° (W) 16:10:10 436.500 FM
ITAMSAT 1 23 Oct 16:07:23 16:11:33 24° 268° (W) 16:15:46 435.822 SSB
KITSAT 1 23 Oct 16:09:19 16:16:31 34° 330° (NNW) 16:23:45 435.175 FM
Gurwin Techsat 1B 23 Oct 16:18:04 16:22:54 35° 264° (W) 16:27:46 435.225 FM
AO-7 23 Oct 16:21:42 16:29:53 70° 65° (ENE) 16:38:07 29.400 - 29.500 MHz
Saudisat 1A 23 Oct 16:27:59 16:32:12 41° 42° (NE) 16:36:23 436.775 MHz
TMSAT-1 23 Oct 16:30:10 16:35:02 36° 264° (W) 16:39:56 436.925 FM
UOSAT-12 23 Oct 16:31:13 16:35:52 82° 127° (SE) 16:40:38 437.025 FM, 437.400 FM
SO-50 23 Oct 16:42:14 16:45:43 21° 331° (NNW) 16:49:17 436.795 FM
ISS 23 Oct 16:44:54 16:48:11 52° 351° (N) 16:51:28 145.800 FM
JAS-2 23 Oct 17:01:49 17:07:04 31° 58° (ENE) 17:12:55 435.800 - 435.900 CW/SSB, 435.910 FM
Uosat F 23 Oct 17:33:50 17:38:44 53° 259° (W) 17:43:41 435.120 FM
Hamsat 23 Oct 18:01:53 18:05:52 43° 70° (ENE) 18:09:52 145.90 MHz
Saudisat 1A 23 Oct 18:07:45 18:11:41 32° 242° (WSW) 18:15:37 436.775 MHz
KITSAT 1 23 Oct 18:08:38 18:14:41 22° 359° (N) 18:20:44 435.175 FM
UOSAT-12 23 Oct 18:12:47 18:16:36 24° 328° (NNW) 18:20:27 437.025 FM, 437.400 FM
AO-7 23 Oct 18:16:11 18:23:18 31° 266° (W) 18:30:29 29.400 - 29.500 MHz
ISS 23 Oct 18:21:54 18:25:12 54° 11° (N) 18:28:30 145.800 FM
SO-50 23 Oct 18:26:32 18:28:05 11° 356° (N) 18:29:39 436.795 FM
SO-67 23 Oct 18:38:32 18:40:16 13° 63° (ENE) 18:41:59 435.3500 MHz FM
JAS-2 23 Oct 18:45:50 18:51:42 59° 261° (W) 18:58:26 435.800 - 435.900 CW/SSB, 435.910 FM
OPAL 23 Oct 19:06:47 19:11:47 73° 106° (ESE) 19:16:43 ?
STRAND 1 23 Oct 19:11:49 19:14:22 14° 87° (E) 19:16:54 ?
Hamsat 23 Oct 19:38:53 19:42:02 20° 268° (W) 19:45:11 145.90 MHz
UOSAT-12 23 Oct 19:56:41 19:58:26 12° 352° (N) 20:00:11 437.025 FM, 437.400 FM
ISS 23 Oct 19:58:40 20:01:56 50° 210° (SSW) 20:05:10 145.800 FM
KITSAT 1 23 Oct 20:05:48 20:12:56 32° 28° (NNE) 20:20:01 435.175 FM
SO-50 23 Oct 20:07:43 20:10:39 16° 21° (NNE) 20:13:36 436.795 FM
SO-67 23 Oct 20:09:30 20:12:51 51° 260° (W) 20:16:14 435.3500 MHz FM
HO-68 23 Oct 20:23:44 20:30:07 37° 58° (ENE) 20:36:31 435.675 MHz FM
OPAL 23 Oct 20:46:41 20:50:09 19° 305° (NW) 20:53:35 ?
STRAND 1 23 Oct 20:49:06 20:54:18 90° 273° (W) 20:59:27 ?
UKube-1 23 Oct 21:06:56 21:09:59 19° 60° (ENE) 21:13:03 145.840 MHz, 145.915 MHz
UOSAT-12 23 Oct 21:38:04 21:40:37 14° 17° (NNE) 21:43:09 437.025 FM, 437.400 FM
FUNcube-1 23 Oct 21:44:20 21:47:27 18° 61° (ENE) 21:50:33 145.950 - 145.970 MHz USB
SO-50 23 Oct 21:47:42 21:52:21 46° 43° (NE) 21:57:03 436.795 FM
Oscar 11 23 Oct 21:48:21 21:52:21 38° 68° (ENE) 21:56:22 145.825 FM, Beacon 2401.500 USB
KITSAT 1 23 Oct 22:01:21 22:09:30 84° 53° (NE) 22:17:36 435.175 FM
HO-68 23 Oct 22:10:33 22:17:34 57° 258° (WSW) 22:24:39 435.675 MHz FM
RS-15 23 Oct 22:25:13 22:34:32 34° 106° (ESE) 22:43:47 29.354 - 29.394 USB, Beacon 29.352 USB
STRAND 1 23 Oct 22:29:41 22:32:47 16° 305° (NW) 22:35:52 ?
ZACube-1 23 Oct 22:33:56 22:38:22 50° 71° (ENE) 22:42:44 437.345 MHz
UKube-1 23 Oct 22:41:30 22:45:47 57° 259° (WSW) 22:50:07 145.840 MHz, 145.915 MHz
